Location: Gull Harbor
(47.1000°N, 122.9000°W)
Time: 08:19:06
(UTC-07:00)

ISS - Visible Passes

Search period start: 18 May 2021 00:00
Search period end: 28 May 2021 00:00
Orbit: 417 x 422 km, 51.6° (Epoch: 18 May)

Date Brightness Start Highest point End Pass type
(mag) Time Alt. Az. Time Alt. Az. Time Alt. Az.
18 May -2.2 00:01:05 10° WNW 00:04:15 36° N 00:07:21 10° ENE visible
18 May -2.4 01:38:05 10° WNW 01:40:15 35° NW 01:40:15 35° NW visible
18 May -3.8 21:36:14 10° WSW 21:39:36 90° NNW 21:42:59 10° ENE visible
18 May -2.2 23:13:29 10° WNW 23:16:40 38° N 23:19:51 10° ENE visible
19 May -2.8 00:50:37 10° WNW 00:53:55 47° NNE 00:53:58 47° NNE visible
19 May -2.4 22:25:52 10° W 22:29:05 42° NNW 22:32:20 10° ENE visible
20 May -2.4 00:03:08 10° WNW 00:06:21 40° N 00:07:49 25° ENE visible
20 May -1.3 01:39:58 10° WNW 01:40:45 16° WNW 01:40:45 16° WNW visible
20 May -2.8 21:38:15 10° W 21:41:33 50° NNW 21:44:51 10° ENE visible
20 May -2.3 23:15:37 10° WNW 23:18:46 37° N 23:21:45 11° ENE visible
21 May -2.5 00:52:30 10° WNW 00:54:40 37° WNW 00:54:40 37° WNW visible
21 May -2.2 22:28:01 10° WNW 22:31:11 36° N 22:34:20 10° ENE visible
22 May -3.3 00:05:01 10° WNW 00:08:22 59° NNE 00:08:38 56° NE visible
22 May -2.2 21:40:25 10° WNW 21:43:35 37° N 21:46:47 10° ENE visible
22 May -2.8 23:17:34 10° WNW 23:20:50 47° NNE 23:22:38 23° ENE visible
23 May -1.6 00:54:25 10° WNW 00:55:34 19° W 00:55:34 19° W visible
23 May -2.5 22:30:03 10° WNW 22:33:16 40° N 22:36:28 10° E visible
24 May -3.3 00:06:53 10° WNW 00:09:35 52° W 00:09:35 52° W visible
24 May -2.3 21:42:30 10° WNW 21:45:40 37° N 21:48:50 10° ENE visible
24 May -3.8 23:19:23 10° WNW 23:22:46 80° NNE 23:23:38 47° ESE visible
25 May -3.3 22:31:55 10° WNW 22:35:15 59° NNE 22:37:42 17° E visible
26 May -2.0 00:08:55 10° W 00:10:38 23° WSW 00:10:38 23° WSW visible
26 May -2.9 21:44:25 10° WNW 21:47:42 47° NNE 21:50:58 10° E visible
26 May -3.4 23:21:17 10° WNW 23:24:32 47° SSW 23:24:44 47° SSW visible
27 May -3.8 22:33:44 10° WNW 22:37:06 72° SSW 22:38:52 26° SE visible
